Regional Weather Roundup
Issued by NWS

Home | Current Version | Previous Version | Graphics & Text | Print | Product List | Glossary On
Versions: 1 2 3 4 5 6 7 8 9 10 11 12 13 14 15 16 17 18 19 20 21 22 23 24 25 26 27 28 29 30 31 32 33 34 35 36 37 38 39 40 41 42 43 44 45 46 47 48 49 50
588
ASUS43 KOAX 230210
RWRNE

WEATHER ROUNDUP FOR NEBRASKA
NATIONAL WEATHER SERVICE OMAHA NE
900 PM CDT MON MAY 22 2017

NOTES: SATELLITE DATA IS BEING USED TO AUGMENT CLOUD COVER ABOVE
       12000 FEET.
       "FAIR" INDICATES FEW OR NO CLOUDS BELOW 12,000 FEET WITH NO
       SIGNIFICANT WEATHER AND/OR OBSTRUCTIONS TO VISIBILITY.

  * THESE STATIONS DO NOT REPORT WEATHER SUCH AS RAIN...SNOW OR FOG.

NEZ001>004-019>022-054>056-230300-
NEBRASKA PANHANDLE

CITY           SKY/WX    TMP DP  RH WIND       PRES   REMARKS
SCOTTSBLUFF    CLEAR     47  38  71 N8        30.14R
ALLIANCE       PTCLDY    44  40  85 N9        30.11S
CHADRON        PTCLDY    50  44  80 N6        30.13R
GORDON         CLOUDY    48  43  82 NW6       30.10R
KIMBALL        CLOUDY    46  37  69 N9        30.16R
SIDNEY         CLOUDY    46  39  76 N18G26    30.13R
$$

NEZ057>060-069>072-079>082-230300-
SOUTHWEST NEBRASKA

CITY           SKY/WX    TMP DP  RH WIND       PRES   REMARKS
NORTH PLATTE   CLOUDY    54  44  69 N12G21    30.04R
IMPERIAL       CLOUDY    52  40  63 N14G23    30.07R
LEXINGTON      CLOUDY    55  46  73 N13G20    30.00R
MCCOOK         CLOUDY    58  44  60 NW13      30.01R
OGALLALA       CLOUDY    53  42  66 N16       30.08R
$$

NEZ005>010-023>029-035>040-094-230300-
NORTH CENTRAL NEBRASKA

CITY           SKY/WX    TMP DP  RH WIND       PRES   REMARKS
VALENTINE      MOCLDY    54  40  59 NW9       30.04R
AINSWORTH      CLOUDY    51  43  74 N8        30.03R
BROKEN BOW     CLOUDY    55  46  71 NW18G28   29.99R
O`NEILL        PTCLDY    53  43  67 N9        29.98R
ORD            CLOUDY    56  44  64 N15G25    29.96R
THEDFORD       CLOUDY    51  46  83 NW9       30.05R
$$

NEZ041-046>049-061>064-073>077-083>087-230300-
SOUTH CENTRAL NEBRASKA

CITY           SKY/WX    TMP DP  RH WIND       PRES   REMARKS
GRAND ISLAND   PTCLDY    56  46  69 N8        29.94R
AURORA         CLEAR     57  45  62 N7        29.92S
HASTINGS       PTCLDY    58  46  64 N9        29.94R
HEBRON         CLOUDY    58  56  91 CALM      29.90S
HOLDREGE       CLOUDY    59  43  55 NW12      29.97R
KEARNEY *      MOCLDY    59  41  51 N12       29.95R
YORK           CLOUDY    59  46  63 N8        29.91S
$$

NEZ011>018-030>034-042>045-230300-
NORTHEAST NEBRASKA

CITY           SKY/WX    TMP DP  RH WIND       PRES   REMARKS
NORFOLK        MOCLDY    57  47  69 N15G23    29.92R
ALBION         MOCLDY    59  45  58 N12G17    29.94R
BLAIR          CLOUDY    61  46  57 NW5       29.88S
FREMONT        CLOUDY    60  48  65 NW6       29.89S
TEKAMAH        CLEAR     60  49  66 NW8       29.87S
WAYNE          PTCLDY    56  49  76 N16       29.91R
$$

NEZ050>053-065>068-078-088>093-230300-
SOUTHEAST NEBRASKA

CITY           SKY/WX    TMP DP  RH WIND       PRES   REMARKS
LINCOLN        CLOUDY    58  55  90 CALM      29.90S
OMAHA EPPLEY   CLOUDY    63  52  67 S3        29.88S
BEATRICE       CLOUDY    58  56  95 CALM      29.91R
FALLS CITY     CLEAR     59  53  80 SW8       29.89F
NEBRASKA CITY  CLOUDY    58  54  86 W9        29.89S
PLATTSMOUTH    CLOUDY    58  54  84 SW6       29.89S
$$

NEZ044-045-051>053-067-230300-
OMAHA AREA

CITY           SKY/WX    TMP DP  RH WIND       PRES   REMARKS
OMAHA EPPLEY   CLOUDY    63  52  67 S3        29.88S
BLAIR          CLOUDY    61  46  57 NW5       29.88S
FREMONT        CLOUDY    60  48  65 NW6       29.89S
MILLARD        CLOUDY    60  58  94 CALM      29.88S
OFFUTT AFB     MOCLDY    60  55  82 W5        29.88R
PLATTSMOUTH    CLOUDY    58  54  84 SW6       29.89S
WAHOO          FAIR      60  46  58 NW6       29.88S
$$




USA.gov is the U.S. government's official web portal to all federal, state and local government web resources and services.